Change the Weather History Date:

Thursday, January 17, 2013

  Actual Average Record
Temperature  
Mean Temperature 55 °F 53 °F  
Max Temperature 67 °F 66 °F 79 °F (1999)
Min Temperature 43 °F 40 °F 25 °F (2009)
Degree Days  
Heating Degree Days 10 12  
Month to date heating degree days 80 215  
Since 1 July heating degree days 504 720  
Cooling Degree Days 0 0  
Month to date cooling degree days 41 0  
Year to date cooling degree days 41 0  
Growing Degree Days 4 (Base 50)    
Moisture  
Dew Point 49 °F    
Average Humidity 78    
Maximum Humidity 100    
Minimum Humidity 53    
Precipitation  
Precipitation 0.04 in 0.14 in 0.80 in (2011)
Month to date precipitation 0.46 2.20  
Year to date precipitation 0.46 2.20  
Sea Level Pressure  
Sea Level Pressure 30.04 in    
Wind  
Wind Speed 11 mph (West)    
Max Wind Speed 29 mph    
Max Gust Speed 39 mph    
T = Trace of Precipitation, MM = Missing Value Source: NWS Daily Summary

Daily Weather History Graph

Daily Weather History Graph

Search for Another Location

Airport or City:

Trip Planner

Search our weather history database for the weather conditions in past years. The results will help you decide how hot, cold, wet, or windy it might be!

Date:

Astronomy

Jan. 17, 2013 Rise Set
Actual Time 7:27 AM EST 5:57 PM EST
Civil Twilight 7:02 AM EST 6:23 PM EST
Nautical Twilight 6:33 AM EST 6:52 PM EST
Astronomical Twilight 6:04 AM EST 7:21 PM EST
Moon 11:06 AM EST (1/17) No Moon Set
Length of Visible Light 11h 20m
Length of Day
10h 29m
Waxing Crescent, 37% of the Moon is Illuminated
Jan 17
Waxing Crescent
Jan 18
First Quarter
Jan 26
Full
Feb 3
Last Quarter
Feb 10
New

Hourly Weather History & Observations

Time (EST) Temp. Windchill Dew Point Humidity Pressure Visibility Wind Dir Wind Speed Gust Speed Precip Events Conditions
12:53 AM 57.9 °F - 55.9 °F 93% 30.01 in - Calm Calm - N/A   Unknown
1:53 AM 55.9 °F - 55.0 °F 97% 30.00 in - Calm Calm - N/A   Unknown
2:53 AM 57.0 °F - 55.0 °F 93% 29.99 in - Calm Calm - N/A   Unknown
3:53 AM 60.1 °F - 57.9 °F 93% 29.97 in - SSE 3.5 mph - N/A   Unknown
4:53 AM 59.0 °F - 57.0 °F 93% 29.96 in - Calm Calm - N/A   Unknown
5:53 AM 60.1 °F - 57.9 °F 93% 29.96 in - SSE 3.5 mph - N/A   Unknown
6:53 AM 61.0 °F - 59.0 °F 93% 29.97 in - South 3.5 mph - N/A   Unknown
7:53 AM 66.9 °F - 64.9 °F 93% 29.99 in - WSW 11.5 mph - N/A   Unknown
8:53 AM 62.1 °F - 60.1 °F 93% 30.02 in - West 11.5 mph 18.4 mph 0.04 in   Unknown
9:53 AM 61.0 °F - 57.9 °F 90% 30.04 in - West 11.5 mph 23.0 mph N/A   Unknown
10:53 AM 60.1 °F - 57.0 °F 90% 30.04 in - West 12.7 mph - N/A   Unknown
11:53 AM 57.0 °F - 53.1 °F 87% 30.05 in - West 17.3 mph 28.8 mph N/A   Unknown
12:53 PM 57.0 °F - 48.0 °F 72% 30.03 in - West 15.0 mph 27.6 mph N/A   Unknown
1:53 PM 57.9 °F - 45.0 °F 62% 30.01 in - West 19.6 mph 34.5 mph N/A   Unknown
2:53 PM 59.0 °F - 43.0 °F 55% 30.01 in - West 25.3 mph 33.4 mph N/A   Unknown
3:53 PM 57.9 °F - 44.1 °F 60% 30.02 in - West 20.7 mph 32.2 mph N/A   Unknown
4:53 PM 57.0 °F - 44.1 °F 62% 30.04 in - West 16.1 mph 25.3 mph N/A   Unknown
5:53 PM 53.1 °F - 43.0 °F 69% 30.05 in - West 10.4 mph 25.3 mph N/A   Unknown
6:53 PM 51.1 °F - 43.0 °F 74% 30.07 in - West 11.5 mph - N/A   Unknown
7:53 PM 50.0 °F - 37.9 °F 63% 30.11 in - WNW 17.3 mph 28.8 mph N/A   Unknown
8:53 PM 45.0 °F 37.1 °F 32.0 °F 60% 30.15 in - NW 19.6 mph 26.5 mph N/A   Unknown
9:53 PM 43.0 °F 37.2 °F 32.0 °F 65% 30.18 in - NW 10.4 mph 20.7 mph N/A   Unknown
10:53 PM 43.0 °F 36.8 °F 32.0 °F 65% 30.19 in - NNW 11.5 mph - N/A   Unknown
11:53 PM 43.0 °F 38.8 °F 32.0 °F 65% 30.19 in - NNW 6.9 mph 16.1 mph N/A   Unknown